Creston, IA

4:37 PM CST on February 24, 2017 (GMT -0600)
Creston Municipal

Weather History for KCSQ - March, 2014

Change the Weather History Date:

Tuesday, March 4, 2014

  Actual Average Record
Temperature  
Mean Temperature 20 °F -  
Max Temperature 32 °F 43 °F 77 °F (1983)
Min Temperature 8 °F 24 °F -12 °F (1960)
Degree Days  
Heating Degree Days 45    
Moisture  
Dew Point 10 °F    
Average Humidity 63    
Maximum Humidity 74    
Minimum Humidity 50    
Precipitation  
Precipitation 0.00 in - - ()
Sea Level Pressure  
Sea Level Pressure 30.07 in    
Wind  
Wind Speed 10 mph (SSE)    
Max Wind Speed 14 mph    
Max Gust Speed 18 mph    
Visibility 10 miles    
Events      
Averages and records for this station are not official NWS values.
T = Trace of Precipitation, MM = Missing Value Source: NWS Daily Summary

Daily Weather History Graph

Daily Weather History Graph

Search for Another Location

Airport or City:

Trip Planner

Search our weather history database for the weather conditions in past years. The results will help you decide how hot, cold, wet, or windy it might be!

Date:

Astronomy

Mar. 04, 2014 Rise Set
Actual Time 6:46 AM CST 6:11 PM CST
Civil Twilight 6:19 AM CST 6:39 PM CST
Nautical Twilight 5:47 AM CST 7:11 PM CST
Astronomical Twilight 5:15 AM CST 7:43 PM CST
Moon 8:31 AM CST (3/4) 10:22 PM CST (3/4)
Length of Visible Light 12h 20m
Length of Day
11h 25m
Waxing Crescent, 15% of the Moon is Illuminated
Mar 4
Waxing Crescent
Mar 8
First Quarter
Mar 16
Full
Mar 23
Last Quarter
Mar 30
New

Hourly Weather History & Observations

Time (CST) Temp. Windchill Dew Point Humidity Pressure Visibility Wind Dir Wind Speed Gust Speed Precip Events Conditions
12:15 AM 12.2 °F -2.5 °F -0.4 °F 57% 30.19 in 10.0 mi South 12.7 mph - N/A   Mostly Cloudy
12:35 AM 12.2 °F -2.5 °F -0.4 °F 57% 30.18 in 10.0 mi South 12.7 mph - N/A   Partly Cloudy
12:55 AM 12.2 °F -2.5 °F -0.4 °F 57% 30.17 in 10.0 mi South 12.7 mph - N/A   Partly Cloudy
1:15 AM 12.2 °F -3.1 °F -0.4 °F 57% 30.17 in 10.0 mi South 13.8 mph - N/A   Clear
1:35 AM 12.2 °F -3.1 °F -0.4 °F 57% 30.16 in 10.0 mi South 13.8 mph - N/A   Clear
1:55 AM 10.4 °F -3.3 °F -0.4 °F 62% 30.17 in 10.0 mi South 10.4 mph - N/A   Clear
2:15 AM 10.4 °F -3.3 °F -0.4 °F 62% 30.16 in 10.0 mi South 10.4 mph - N/A   Clear
2:35 AM 10.4 °F -3.3 °F -0.4 °F 62% 30.15 in 10.0 mi South 10.4 mph - N/A   Clear
2:55 AM 10.4 °F -3.3 °F -0.4 °F 62% 30.14 in 10.0 mi South 10.4 mph - N/A   Clear
3:15 AM 10.4 °F -3.3 °F -0.4 °F 62% 30.13 in 10.0 mi South 10.4 mph - N/A   Clear
3:35 AM 10.4 °F -2.4 °F -0.4 °F 62% 30.13 in 10.0 mi South 9.2 mph - N/A   Clear
3:55 AM 10.4 °F -4.1 °F 1.4 °F 67% 30.12 in 10.0 mi South 11.5 mph - N/A   Clear
4:15 AM 8.6 °F -5.5 °F 1.4 °F 73% 30.12 in 10.0 mi South 10.4 mph - N/A   Clear
4:35 AM 8.6 °F -5.5 °F 1.4 °F 73% 30.12 in 10.0 mi South 10.4 mph - N/A   Clear
4:55 AM 8.6 °F -5.5 °F 1.4 °F 73% 30.12 in 10.0 mi South 10.4 mph - N/A   Clear
5:15 AM 8.6 °F -4.7 °F 1.4 °F 73% 30.12 in 10.0 mi South 9.2 mph - N/A   Clear
5:35 AM 8.6 °F -4.7 °F 1.4 °F 73% 30.11 in 10.0 mi South 9.2 mph - N/A   Clear
5:55 AM 8.6 °F -5.5 °F 1.4 °F 73% 30.11 in 10.0 mi South 10.4 mph - N/A   Clear
6:15 AM 8.6 °F -4.7 °F 1.4 °F 73% 30.10 in 10.0 mi South 9.2 mph - N/A   Clear
6:35 AM 8.6 °F -5.5 °F 1.4 °F 73% 30.10 in 10.0 mi South 10.4 mph - N/A   Clear
6:55 AM 8.6 °F -4.7 °F 1.4 °F 73% 30.09 in 10.0 mi South 9.2 mph - N/A   Clear
7:15 AM 8.6 °F -3.7 °F 1.4 °F 73% 30.10 in 10.0 mi South 8.1 mph - N/A   Clear
7:35 AM 8.6 °F -1.3 °F 1.4 °F 73% 30.11 in 10.0 mi SSW 5.8 mph - N/A   Clear
7:55 AM 10.4 °F -2.4 °F 3.2 °F 73% 30.10 in 10.0 mi South 9.2 mph - N/A   Clear
8:15 AM 12.2 °F -1.0 °F 3.2 °F 67% 30.10 in 10.0 mi SSW 10.4 mph - N/A   Clear
8:35 AM 12.2 °F -1.0 °F 3.2 °F 67% 30.10 in 10.0 mi South 10.4 mph - N/A   Clear
8:55 AM 14.0 °F 1.2 °F 5.0 °F 67% 30.09 in 10.0 mi South 10.4 mph - N/A   Clear
9:15 AM 15.8 °F 3.4 °F 5.0 °F 62% 30.09 in 10.0 mi South 10.4 mph - N/A   Clear
9:35 AM 15.8 °F 6.1 °F 5.0 °F 62% 30.08 in 10.0 mi SSW 6.9 mph - N/A   Clear
9:55 AM 17.6 °F 6.4 °F 6.8 °F 63% 30.08 in 10.0 mi South 9.2 mph - N/A   Clear
10:15 AM 17.6 °F 7.3 °F 6.8 °F 63% 30.08 in 10.0 mi South 8.1 mph - N/A   Clear
10:35 AM 19.4 °F 10.4 °F 6.8 °F 58% 30.08 in 10.0 mi South 6.9 mph - N/A   Clear
10:55 AM 19.4 °F 12.8 °F 6.8 °F 58% 30.08 in 10.0 mi Variable 4.6 mph - N/A   Clear
11:15 AM 21.2 °F 12.6 °F 6.8 °F 54% 30.09 in - South 6.9 mph - N/A   Clear
11:35 AM 23.0 °F 17.0 °F 8.6 °F 54% 30.08 in 10.0 mi Variable 4.6 mph - N/A   Clear
11:55 AM 23.0 °F 15.8 °F 8.6 °F 54% 30.09 in 10.0 mi Variable 5.8 mph - N/A   Clear
12:15 PM 23.0 °F 15.8 °F 8.6 °F 54% 30.08 in 10.0 mi SE 5.8 mph - N/A   Clear
12:35 PM 24.8 °F 16.9 °F 8.6 °F 50% 30.08 in 10.0 mi South 6.9 mph - N/A   Clear
12:55 PM 24.8 °F 15.3 °F 10.4 °F 54% 30.06 in 10.0 mi SSE 9.2 mph - N/A   Clear
1:15 PM 26.6 °F 18.2 °F 10.4 °F 51% 30.05 in 10.0 mi SSE 8.1 mph - N/A   Clear
1:30 PM 26.6 °F 19.1 °F 12.2 °F 55% 30.04 in 10.0 mi SE 6.9 mph - N/A   Clear
1:55 PM 28.4 °F 19.1 °F 14.0 °F 55% 30.02 in 10.0 mi SE 10.4 mph - N/A   Clear
2:15 PM 30.2 °F 21.3 °F 15.8 °F 55% 30.01 in 10.0 mi SSE 10.4 mph - N/A   Clear
2:35 PM 30.2 °F 20.8 °F 15.8 °F 55% 30.01 in 10.0 mi SE 11.5 mph - N/A   Clear
2:55 PM 30.2 °F 21.9 °F 15.8 °F 55% 30.02 in 10.0 mi SE 9.2 mph - N/A   Clear
3:15 PM 32.0 °F 24.8 °F 15.8 °F 51% 30.01 in 10.0 mi SSE 8.1 mph 15.0 mph N/A   Clear
3:35 PM 32.0 °F 23.0 °F 15.8 °F 51% 30.01 in 10.0 mi SE 11.5 mph - N/A   Clear
3:55 PM 32.0 °F 22.5 °F 17.6 °F 55% 30.00 in 10.0 mi SE 12.7 mph - N/A   Mostly Cloudy
4:15 PM 32.0 °F 23.6 °F 17.6 °F 55% 30.00 in 10.0 mi SE 10.4 mph - N/A   Scattered Clouds
4:35 PM 32.0 °F 24.2 °F 17.6 °F 55% 30.01 in 10.0 mi SE 9.2 mph - N/A   Mostly Cloudy
4:55 PM 30.2 °F 20.8 °F 17.6 °F 60% 29.99 in 10.0 mi SE 11.5 mph - N/A   Mostly Cloudy
5:15 PM 30.2 °F 19.8 °F 17.6 °F 60% 29.99 in 10.0 mi SE 13.8 mph - N/A   Scattered Clouds
5:35 PM 30.2 °F 20.8 °F 17.6 °F 60% 30.00 in 10.0 mi SE 11.5 mph - N/A   Scattered Clouds
5:55 PM 30.2 °F 21.3 °F 19.4 °F 64% 30.00 in 10.0 mi SE 10.4 mph - N/A   Overcast
6:15 PM 30.2 °F 20.8 °F 17.6 °F 60% 30.00 in 10.0 mi ESE 11.5 mph 18.4 mph N/A   Mostly Cloudy
6:35 PM 28.4 °F 20.4 °F 17.6 °F 64% 30.02 in 10.0 mi ESE 8.1 mph - N/A   Scattered Clouds
6:55 PM 28.4 °F 21.2 °F 19.4 °F 69% 30.02 in 10.0 mi ESE 6.9 mph - N/A   Partly Cloudy
7:15 PM 28.4 °F 21.2 °F 19.4 °F 69% 30.03 in 10.0 mi SE 6.9 mph - N/A   Clear
7:35 PM 26.6 °F 20.0 °F 19.4 °F 74% 30.02 in 10.0 mi ESE 5.8 mph - N/A   Partly Cloudy
7:55 PM 28.4 °F 18.5 °F 19.4 °F 69% 30.01 in 10.0 mi ESE 11.5 mph - N/A   Mostly Cloudy
8:15 PM 28.4 °F 21.2 °F 19.4 °F 69% 30.02 in 10.0 mi ESE 6.9 mph - N/A   Mostly Cloudy
8:35 PM 28.4 °F 21.2 °F 19.4 °F 69% 30.03 in 10.0 mi East 6.9 mph - N/A   Mostly Cloudy
8:55 PM 28.4 °F 23.3 °F 19.4 °F 69% 30.04 in 10.0 mi East 4.6 mph - N/A   Overcast
9:15 PM 28.4 °F 23.3 °F 19.4 °F 69% 30.05 in 10.0 mi East 4.6 mph - N/A   Overcast
9:35 PM 28.4 °F 22.2 °F 19.4 °F 69% 30.05 in 10.0 mi East 5.8 mph - N/A   Overcast
9:55 PM 28.4 °F 21.2 °F 19.4 °F 69% 30.06 in 10.0 mi ENE 6.9 mph - N/A   Overcast
10:15 PM 28.4 °F 22.2 °F 19.4 °F 69% 30.06 in 10.0 mi East 5.8 mph - N/A   Overcast
10:35 PM 28.4 °F 22.2 °F 21.2 °F 74% 30.07 in 10.0 mi East 5.8 mph - N/A   Overcast
10:55 PM 28.4 °F 22.2 °F 19.4 °F 69% 30.07 in 10.0 mi East 5.8 mph - N/A   Overcast
11:15 PM 28.4 °F 22.2 °F 19.4 °F 69% 30.08 in 10.0 mi ENE 5.8 mph - N/A   Overcast
11:35 PM 28.4 °F 22.2 °F 21.2 °F 74% 30.08 in 10.0 mi NE 5.8 mph - N/A   Overcast
11:55 PM 28.4 °F 21.2 °F 21.2 °F 74% 30.09 in 10.0 mi ENE 6.9 mph - N/A   Overcast